,,PA_Meas_PMT16A,,PR_Meas_QMR101_102,,RH_Meas_QMH101,,SR_Meas_QMS101,,TA_Meas_QMH101,,GenWind,,GenWind,
time,status,PA,status,PR,status,RH,status,SR,status,TA,status,DirAvg,status,SpdAvg,
2013-01-21, 00:00:04,VALID,919.732,VALID,0,VALID,95.0488,VALID,0,VALID,20.0928,VALID,116,VALID,0,
2013-01-21, 00:01:04,VALID,919.714,VALID,0,VALID,94.9954,VALID,0,VALID,20.0944,VALID,116,VALID,0,
2013-01-21, 00:02:04,VALID,919.71,VALID,0,VALID,95.003,VALID,0,VALID,20.0749,VALID,115,VALID,0,
2013-01-21, 00:03:04,VALID,919.715,VALID,0,VALID,95.0564,VALID,0,VALID,20.0749,VALID,115,VALID,0,
2013-01-21, 00:04:04,VALID,919.698,VALID,0,VALID,95.0792,VALID,0,VALID,20.0749,VALID,115,VALID,0,
2013-01-21, 00:05:04,VALID,919.666,VALID,0,VALID,95.1479,VALID,0,VALID,20.0553,VALID,117,VALID,0,
2013-01-21, 00:06:04,VALID,919.687,VALID,0,VALID,95.2165,VALID,0,VALID,20.0358,VALID,117,VALID,0,
2013-01-21, 00:07:04,VALID,919.679,VALID,0,VALID,95.2851,VALID,0,VALID,20.0163,VALID,117,VALID,0,
2013-01-21, 00:08:04,VALID,919.719,VALID,0,VALID,95.3613,VALID,0,VALID,19.9968,VALID,117,VALID,0,
2013-01-21, 00:09:04,VALID,919.699,VALID,0,VALID,95.4833,VALID,0,VALID,19.9968,VALID,117,VALID,0,
2013-01-21, 00:10:04,VALID,919.714,VALID,0,VALID,95.5748,VALID,0,VALID,19.9968,VALID,117,VALID,0,
2013-01-21, 00:11:04,VALID,919.722,VALID,0,VALID,95.6357,VALID,0.107441,VALID,19.9758,VALID,117,VALID,0,
2013-01-21, 00:12:04,VALID,919.737,VALID,0,VALID,95.6739,VALID,0,VALID,19.9968,VALID,117,VALID,0,
2013-01-21, 00:13:04,VALID,919.738,VALID,0,VALID,95.712,VALID,0,VALID,19.9968,VALID,117,VALID,0,
2013-01-21, 00:14:04,VALID,919.748,VALID,0,VALID,95.712,VALID,0,VALID,20.0163,VALID,117,VALID,0,
2013-01-21, 00:15:04,VALID,919.732,VALID,0,VALID,95.7044,VALID,0,VALID,20.0148,VALID,117,VALID,0,
2013-01-21, 00:16:04,VALID,919.711,VALID,0,VALID,95.6891,VALID,0,VALID,20.0148,VALID,117,VALID,0,
2013-01-21, 00:17:04,VALID,919.727,VALID,0,VALID,95.6739,VALID,0,VALID,20.0148,VALID,117,VALID,0,
2013-01-21, 00:18:04,VALID,919.699,VALID,0,VALID,95.6815,VALID,0,VALID,20.0553,VALID,117,VALID,0,
2013-01-21, 00:19:04,VALID,919.707,VALID,0,VALID,95.6662,VALID,0,VALID,20.0343,VALID,117,VALID,0,
2013-01-21, 00:20:04,VALID,919.672,VALID,0,VALID,95.712,VALID,0,VALID,20.0733,VALID,117,VALID,0,
2013-01-21, 00:21:04,VALID,919.664,VALID,0,VALID,95.6586,VALID,0,VALID,20.0944,VALID,117,VALID,0,
2013-01-21, 00:22:04,VALID,919.658,VALID,0,VALID,95.6053,VALID,0.107441,VALID,20.0749,VALID,117,VALID,0,
2013-01-21, 00:23:04,VALID,919.606,VALID,0,VALID,95.59,VALID,0,VALID,20.0538,VALID,117,VALID,0,
2013-01-21, 00:24:04,VALID,919.604,VALID,0,VALID,95.5824,VALID,0,VALID,20.0749,VALID,117,VALID,0,
2013-01-21, 00:25:04,VALID,919.584,VALID,0,VALID,95.5214,VALID,0,VALID,20.0749,VALID,134,VALID,0,
2013-01-21, 00:26:04,VALID,919.553,VALID,0,VALID,95.4909,VALID,0,VALID,20.0749,VALID,134,VALID,0,
2013-01-21, 00:27:04,VALID,919.532,VALID,0,VALID,95.3842,VALID,0,VALID,20.0343,VALID,134,VALID,0,
2013-01-21, 00:28:04,VALID,919.54,VALID,0,VALID,95.3003,VALID,0,VALID,19.9953,VALID,134,VALID,0,
2013-01-21, 00:29:04,VALID,919.546,VALID,0,VALID,95.2927,VALID,0,VALID,19.9968,VALID,134,VALID,0,
2013-01-21, 00:30:04,VALID,919.509,VALID,0,VALID,95.3156,VALID,0,VALID,19.9563,VALID,134,VALID,0,
2013-01-21, 00:31:04,VALID,919.509,VALID,0,VALID,95.3079,VALID,0,VALID,19.9383,VALID,134,VALID,0,
2013-01-21, 00:32:04,VALID,919.485,VALID,0,VALID,95.3384,VALID,0,VALID,19.8993,VALID,125,VALID,0,
2013-01-21, 00:33:04,VALID,919.435,VALID,0,VALID,95.468,VALID,0,VALID,19.8993,VALID,125,VALID,0,
2013-01-21, 00:34:04,VALID,919.432,VALID,0,VALID,95.5214,VALID,0,VALID,19.8783,VALID,125,VALID,0,
2013-01-21, 00:35:04,VALID,919.392,VALID,0,VALID,95.5671,VALID,0,VALID,19.8798,VALID,125,VALID,0,
2013-01-21, 00:36:04,VALID,919.366,VALID,0,VALID,95.5519,VALID,0,VALID,19.8993,VALID,125,VALID,0,
2013-01-21, 00:37:04,VALID,919.356,VALID,0,VALID,95.5519,VALID,0,VALID,19.8993,VALID,125,VALID,0,
2013-01-21, 00:38:04,VALID,919.309,VALID,0,VALID,95.59,VALID,0,VALID,19.8993,VALID,120,VALID,0,
2013-01-21, 00:39:04,VALID,919.32,VALID,0,VALID,95.5519,VALID,0,VALID,19.9188,VALID,117,VALID,0,
2013-01-21, 00:40:04,VALID,919.308,VALID,0,VALID,95.5367,VALID,0,VALID,19.8978,VALID,117,VALID,0,
2013-01-21, 00:41:04,VALID,919.295,VALID,0,VALID,95.5138,VALID,0,VALID,19.8978,VALID,117,VALID,0,
2013-01-21, 00:42:04,VALID,919.293,VALID,0,VALID,95.5367,VALID,0,VALID,19.9188,VALID,117,VALID,0,
2013-01-21, 00:43:04,VALID,919.301,VALID,0,VALID,95.5443,VALID,0,VALID,19.8783,VALID,117,VALID,0,
2013-01-21, 00:44:04,VALID,919.303,VALID,0,VALID,95.5976,VALID,0,VALID,19.9383,VALID,117,VALID,0,
2013-01-21, 00:45:04,VALID,919.309,VALID,0,VALID,95.5595,VALID,0,VALID,19.9188,VALID,117,VALID,0,
2013-01-21, 00:46:04,VALID,919.298,VALID,0,VALID,95.5824,VALID,0,VALID,19.9188,VALID,117,VALID,0,
2013-01-21, 00:47:04,VALID,919.282,VALID,0,VALID,95.5595,VALID,0,VALID,19.8978,VALID,117,VALID,0,
2013-01-21, 00:48:04,VALID,919.27,VALID,0,VALID,95.5824,VALID,0,VALID,19.8978,VALID,117,VALID,0,
2013-01-21, 00:49:04,VALID,919.262,VALID,0,VALID,95.6205,VALID,0,VALID,19.8978,VALID,117,VALID,0,
2013-01-21, 00:50:04,VALID,919.187,VALID,0,VALID,95.6434,VALID,0,VALID,19.8783,VALID,141,VALID,0,
2013-01-21, 00:51:04,VALID,919.201,VALID,0,VALID,95.6586,VALID,0,VALID,19.8603,VALID,141,VALID,0,
2013-01-21, 00:52:04,VALID,919.19,VALID,0,VALID,95.712,VALID,0,VALID,19.8603,VALID,141,VALID,0,
2013-01-21, 00:53:04,VALID,919.17,VALID,0,VALID,95.773,VALID,0,VALID,19.8408,VALID,165,VALID,0,
2013-01-21, 00:54:04,VALID,919.168,VALID,0,VALID,95.8797,VALID,0,VALID,19.8213,VALID,163,VALID,0,
2013-01-21, 00:55:04,VALID,919.156,VALID,0,VALID,95.9407,VALID,0,VALID,19.8213,VALID,163,VALID,0,
2013-01-21, 00:56:04,VALID,919.163,VALID,0,VALID,95.9864,VALID,0,VALID,19.8018,VALID,163,VALID,0,
2013-01-21, 00:57:04,VALID,919.125,VALID,0,VALID,96.0627,VALID,0,VALID,19.8018,VALID,163,VALID,0,
2013-01-21, 00:58:04,VALID,919.126,VALID,0,VALID,96.1008,VALID,0,VALID,19.8018,VALID,163,VALID,0,
2013-01-21, 00:59:04,VALID,919.099,VALID,0,VALID,96.1084,VALID,0,VALID,19.7823,VALID,165,VALID,0,
2013-01-21, 01:00:04,VALID,919.121,VALID,0,VALID,96.1618,VALID,0,VALID,19.8018,VALID,166,VALID,0,
2013-01-21, 01:01:04,VALID,919.091,VALID,0,VALID,96.1999,VALID,0,VALID,19.7613,VALID,166,VALID,0,
2013-01-21, 01:02:04,VALID,919.078,VALID,0,VALID,96.2151,VALID,0,VALID,19.7418,VALID,169,VALID,0,
2013-01-21, 01:03:04,VALID,919.104,VALID,0,VALID,96.2533,VALID,0,VALID,19.7628,VALID,172,VALID,0,
2013-01-21, 01:04:04,VALID,919.112,VALID,0,VALID,96.2837,VALID,0,VALID,19.7823,VALID,172,VALID,0,
2013-01-21, 01:05:04,VALID,919.087,VALID,0,VALID,96.3142,VALID,0,VALID,19.7823,VALID,172,VALID,0,
2013-01-21, 01:06:04,VALID,919.094,VALID,0,VALID,96.3371,VALID,0,VALID,19.7613,VALID,172,VALID,0,
2013-01-21, 01:07:04,VALID,919.084,VALID,0,VALID,96.3752,VALID,0,VALID,19.7613,VALID,172,VALID,0,
2013-01-21, 01:08:04,VALID,919.102,VALID,0,VALID,96.3905,VALID,0,VALID,19.8018,VALID,172,VALID,0,
2013-01-21, 01:09:04,VALID,919.075,VALID,0,VALID,96.3905,VALID,0,VALID,19.7823,VALID,149,VALID,0,
2013-01-21, 01:10:04,VALID,919.065,VALID,0,VALID,96.3829,VALID,0,VALID,19.7418,VALID,142,VALID,0,
2013-01-21, 01:11:04,VALID,919.027,VALID,0,VALID,96.3905,VALID,0,VALID,19.7418,VALID,122,VALID,0,
2013-01-21, 01:12:04,VALID,918.979,VALID,0,VALID,96.4133,VALID,0,VALID,19.7418,VALID,117,VALID,0,
2013-01-21, 01:13:04,VALID,918.957,VALID,0,VALID,96.4286,VALID,0,VALID,19.7418,VALID,117,VALID,0,
2013-01-21, 01:14:04,VALID,918.931,VALID,0,VALID,96.4362,VALID,0,VALID,19.7823,VALID,117,VALID,0,
2013-01-21, 01:15:04,VALID,918.921,VALID,0,VALID,96.4286,VALID,0,VALID,19.7823,VALID,117,VALID,0,
2013-01-21, 01:16:04,VALID,918.901,VALID,0,VALID,96.4133,VALID,0,VALID,19.7823,VALID,117,VALID,0,
2013-01-21, 01:17:04,VALID,918.902,VALID,0,VALID,96.3981,VALID,0,VALID,19.7628,VALID,117,VALID,0,
2013-01-21, 01:18:04,VALID,918.909,VALID,0,VALID,96.3981,VALID,0,VALID,19.7418,VALID,117,VALID,0,
2013-01-21, 01:19:04,VALID,918.909,VALID,0,VALID,96.3676,VALID,0,VALID,19.7823,VALID,117,VALID,0,
2013-01-21, 01:20:04,VALID,918.891,VALID,0,VALID,96.3447,VALID,0,VALID,19.7628,VALID,117,VALID,0,
2013-01-21, 01:21:04,VALID,918.852,VALID,0,VALID,96.299,VALID,0,VALID,19.7628,VALID,91,VALID,0,
2013-01-21, 01:22:04,VALID,918.884,VALID,0,VALID,96.2761,VALID,0,VALID,19.7628,VALID,89,VALID,0,
2013-01-21, 01:23:04,VALID,918.864,VALID,0,VALID,96.2685,VALID,0,VALID,19.7418,VALID,91,VALID,0,
2013-01-21, 01:24:04,VALID,918.846,VALID,0,VALID,96.238,VALID,0,VALID,19.7433,VALID,100,VALID,0,
2013-01-21, 01:25:04,VALID,918.86,VALID,0,VALID,96.2228,VALID,0,VALID,19.7433,VALID,99,VALID,0,
2013-01-21, 01:26:04,VALID,918.845,VALID,0,VALID,96.2075,VALID,0,VALID,19.7628,VALID,131,VALID,0,
2013-01-21, 01:27:04,VALID,918.846,VALID,0,VALID,96.177,VALID,0,VALID,19.7823,VALID,134,VALID,0,
2013-01-21, 01:28:04,VALID,918.836,VALID,0,VALID,96.1999,VALID,0,VALID,19.8213,VALID,136,VALID,0,
2013-01-21, 01:29:04,VALID,918.891,VALID,0,VALID,96.1465,VALID,0,VALID,19.8003,VALID,145,VALID,0,
2013-01-21, 01:30:04,VALID,918.866,VALID,0,VALID,96.116,VALID,0,VALID,19.8408,VALID,145,VALID,0,
2013-01-21, 01:31:04,VALID,918.87,VALID,0,VALID,96.0703,VALID,0,VALID,19.8213,VALID,145,VALID,0,
2013-01-21, 01:32:04,VALID,918.858,VALID,0,VALID,96.0703,VALID,0,VALID,19.8213,VALID,145,VALID,0,
2013-01-21, 01:33:04,VALID,918.827,VALID,0,VALID,96.0474,VALID,0,VALID,19.8018,VALID,145,VALID,0,
2013-01-21, 01:34:04,VALID,918.806,VALID,0,VALID,96.0169,VALID,0,VALID,19.7823,VALID,137,VALID,0,
2013-01-21, 01:35:04,VALID,918.803,VALID,0,VALID,96.0855,VALID,0,VALID,19.7613,VALID,133,VALID,0,
2013-01-21, 01:36:04,VALID,918.78,VALID,0,VALID,96.0855,VALID,0,VALID,19.7628,VALID,134,VALID,0,
2013-01-21, 01:37:04,VALID,918.752,VALID,0,VALID,96.0855,VALID,0,VALID,19.7418,VALID,144,VALID,0,
2013-01-21, 01:38:04,VALID,918.74,VALID,0,VALID,96.0855,VALID,0,VALID,19.7418,VALID,148,VALID,0,
2013-01-21, 01:39:04,VALID,918.709,VALID,0,VALID,96.0627,VALID,0,VALID,19.7433,VALID,148,VALID,0,
2013-01-21, 01:40:04,VALID,918.706,VALID,0,VALID,96.0779,VALID,0,VALID,19.7433,VALID,148,VALID,0,
2013-01-21, 01:41:04,VALID,918.682,VALID,0,VALID,96.1236,VALID,0,VALID,19.7433,VALID,148,VALID,0,
2013-01-21, 01:42:04,VALID,918.691,VALID,0,VALID,96.116,VALID,0,VALID,19.7433,VALID,153,VALID,0,
2013-01-21, 01:43:04,VALID,918.683,VALID,0,VALID,96.116,VALID,0,VALID,19.7223,VALID,153,VALID,0,
2013-01-21, 01:44:04,VALID,918.695,VALID,0,VALID,96.1389,VALID,0,VALID,19.7238,VALID,153,VALID,0,
2013-01-21, 01:45:05,VALID,918.678,VALID,0,VALID,96.1694,VALID,0,VALID,19.7238,VALID,153,VALID,0,
2013-01-21, 01:46:05,VALID,918.674,VALID,0,VALID,96.1923,VALID,0,VALID,19.7433,VALID,153,VALID,0,
2013-01-21, 01:47:05,VALID,918.7,VALID,0,VALID,96.1618,VALID,0,VALID,19.7238,VALID,140,VALID,0,
2013-01-21, 01:48:05,VALID,918.675,VALID,0,VALID,96.1694,VALID,0,VALID,19.7238,VALID,135,VALID,0,
2013-01-21, 01:49:05,VALID,918.672,VALID,0,VALID,96.177,VALID,0,VALID,19.7043,VALID,135,VALID,0,
2013-01-21, 01:50:05,VALID,918.652,VALID,0,VALID,96.1846,VALID,0,VALID,19.7043,VALID,135,VALID,0,
2013-01-21, 01:51:05,VALID,918.658,VALID,0,VALID,96.2151,VALID,0,VALID,19.7043,VALID,135,VALID,0,
2013-01-21, 01:52:05,VALID,918.642,VALID,0,VALID,96.2075,VALID,0,VALID,19.7238,VALID,135,VALID,0,
2013-01-21, 01:53:05,VALID,918.674,VALID,0,VALID,96.2228,VALID,0,VALID,19.7238,VALID,135,VALID,0,
2013-01-21, 01:54:05,VALID,918.655,VALID,0,VALID,96.2228,VALID,0,VALID,19.7028,VALID,135,VALID,0,
2013-01-21, 01:55:05,VALID,918.609,VALID,0,VALID,96.238,VALID,0,VALID,19.7223,VALID,135,VALID,0,
2013-01-21, 01:56:05,VALID,918.621,VALID,0,VALID,96.2304,VALID,0,VALID,19.7433,VALID,135,VALID,0,
2013-01-21, 01:57:05,VALID,918.621,VALID,0,VALID,96.2228,VALID,0,VALID,19.7628,VALID,132,VALID,0,
2013-01-21, 01:58:05,VALID,918.647,VALID,0,VALID,96.116,VALID,0,VALID,19.7823,VALID,130,VALID,0,
2013-01-21, 01:59:05,VALID,918.626,VALID,0,VALID,96.0855,VALID,0,VALID,19.8018,VALID,142,VALID,0,
2013-01-21, 02:00:05,VALID,918.639,VALID,0,VALID,96.0398,VALID,0,VALID,19.8213,VALID,133,VALID,0,
2013-01-21, 02:01:05,VALID,918.639,VALID,0,VALID,96.0017,VALID,0,VALID,19.8603,VALID,133,VALID,0,
2013-01-21, 02:02:05,VALID,918.657,VALID,0,VALID,95.9102,VALID,0,VALID,19.8798,VALID,133,VALID,0,
2013-01-21, 02:03:05,VALID,918.639,VALID,0,VALID,95.8645,VALID,0,VALID,19.9203,VALID,133,VALID,0,
2013-01-21, 02:04:05,VALID,918.644,VALID,0,VALID,95.7882,VALID,0,VALID,19.9188,VALID,141,VALID,0,
2013-01-21, 02:05:05,VALID,918.684,VALID,0,VALID,95.712,VALID,0,VALID,19.9383,VALID,156,VALID,0,
2013-01-21, 02:06:05,VALID,918.643,VALID,0,VALID,95.6129,VALID,0,VALID,19.9578,VALID,127,VALID,0,
2013-01-21, 02:07:05,VALID,918.656,VALID,0,VALID,95.6129,VALID,0,VALID,19.9773,VALID,127,VALID,0,
2013-01-21, 02:08:05,VALID,918.631,VALID,0,VALID,95.529,VALID,0,VALID,19.9968,VALID,127,VALID,0,
2013-01-21, 02:09:05,VALID,918.61,VALID,0,VALID,95.4375,VALID,0,VALID,19.9968,VALID,132,VALID,0,
2013-01-21, 02:10:05,VALID,918.612,VALID,0,VALID,95.3461,VALID,0,VALID,20.0163,VALID,140,VALID,0,
2013-01-21, 02:11:05,VALID,918.605,VALID,0,VALID,95.2698,VALID,0,VALID,20.0358,VALID,140,VALID,0,
2013-01-21, 02:12:05,VALID,918.574,VALID,0,VALID,95.2088,VALID,0,VALID,20.0163,VALID,140,VALID,0,
2013-01-21, 02:13:05,VALID,918.57,VALID,0,VALID,95.0716,VALID,0,VALID,20.0163,VALID,140,VALID,0,
2013-01-21, 02:14:05,VALID,918.536,VALID,0,VALID,94.9725,VALID,0,VALID,19.9968,VALID,140,VALID,0,
2013-01-21, 02:15:05,VALID,918.507,VALID,0,VALID,94.9496,VALID,0,VALID,19.9968,VALID,140,VALID,0,
2013-01-21, 02:16:05,VALID,918.531,VALID,0,VALID,94.9192,VALID,0,VALID,19.9773,VALID,140,VALID,0,
2013-01-21, 02:17:05,VALID,918.505,VALID,0,VALID,94.8658,VALID,0,VALID,19.9968,VALID,140,VALID,0,
2013-01-21, 02:18:05,VALID,918.54,VALID,0,VALID,94.8277,VALID,0,VALID,19.9773,VALID,140,VALID,0,
2013-01-21, 02:19:05,VALID,918.487,VALID,0,VALID,94.6828,VALID,0,VALID,19.9578,VALID,140,VALID,0,
2013-01-21, 02:20:05,VALID,918.494,VALID,0,VALID,94.7057,VALID,0,VALID,19.9188,VALID,140,VALID,0,
2013-01-21, 02:21:05,VALID,918.496,VALID,0,VALID,94.7591,VALID,0,VALID,19.9383,VALID,140,VALID,0,
2013-01-21, 02:22:05,VALID,918.508,VALID,0,VALID,94.8048,VALID,0,VALID,19.9383,VALID,140,VALID,0,
2013-01-21, 02:23:05,VALID,918.501,VALID,0,VALID,94.7819,VALID,0,VALID,19.9578,VALID,140,VALID,0,
2013-01-21, 02:24:05,VALID,918.485,VALID,0,VALID,94.7514,VALID,0,VALID,19.9578,VALID,140,VALID,0,
2013-01-21, 02:25:05,VALID,918.476,VALID,0,VALID,94.6676,VALID,0,VALID,19.9773,VALID,140,VALID,0,
2013-01-21, 02:26:05,VALID,918.493,VALID,0,VALID,94.6218,VALID,0,VALID,19.9578,VALID,140,VALID,0,
2013-01-21, 02:27:05,VALID,918.463,VALID,0,VALID,94.5761,VALID,0,VALID,19.9383,VALID,140,VALID,0,
2013-01-21, 02:28:05,VALID,918.49,VALID,0,VALID,94.5685,VALID,0,VALID,19.8993,VALID,140,VALID,0,
2013-01-21, 02:29:05,VALID,918.462,VALID,0,VALID,94.5837,VALID,0,VALID,19.8603,VALID,140,VALID,0,
2013-01-21, 02:30:05,VALID,918.462,VALID,0,VALID,94.5761,VALID,0,VALID,19.8213,VALID,140,VALID,0,
2013-01-21, 02:31:05,VALID,918.431,VALID,0,VALID,94.7438,VALID,0,VALID,19.7823,VALID,140,VALID,0,
2013-01-21, 02:32:05,VALID,918.422,VALID,0,VALID,94.8353,VALID,0,VALID,19.7628,VALID,140,VALID,0,
2013-01-21, 02:33:05,VALID,918.37,VALID,0,VALID,94.9801,VALID,0,VALID,19.7628,VALID,140,VALID,0,
2013-01-21, 02:34:05,VALID,918.383,VALID,0,VALID,95.0335,VALID,0,VALID,19.7433,VALID,128,VALID,0,
2013-01-21, 02:35:05,VALID,918.349,VALID,0,VALID,95.1174,VALID,0,VALID,19.7433,VALID,104,VALID,0,
2013-01-21, 02:36:05,VALID,918.357,VALID,0,VALID,95.1555,VALID,0,VALID,19.7043,VALID,104,VALID,0,
2013-01-21, 02:37:05,VALID,918.361,VALID,0,VALID,95.2393,VALID,0,VALID,19.7238,VALID,104,VALID,0,
2013-01-21, 02:38:05,VALID,918.346,VALID,0,VALID,95.3156,VALID,0,VALID,19.7433,VALID,109,VALID,0,
2013-01-21, 02:39:05,VALID,918.379,VALID,0,VALID,95.3308,VALID,0,VALID,19.7628,VALID,101,VALID,0,
2013-01-21, 02:40:05,VALID,918.377,VALID,0,VALID,95.2241,VALID,0,VALID,19.7628,VALID,100,VALID,0,
2013-01-21, 02:41:05,VALID,918.371,VALID,0,VALID,95.2851,VALID,0,VALID,19.7418,VALID,100,VALID,0,
2013-01-21, 02:42:05,VALID,918.372,VALID,0,VALID,95.2775,VALID,0,VALID,19.7628,VALID,112,VALID,0,
2013-01-21, 02:43:05,VALID,918.37,VALID,0,VALID,95.186,VALID,0,VALID,19.7628,VALID,112,VALID,0,
2013-01-21, 02:44:05,VALID,918.372,VALID,0,VALID,95.2393,VALID,0,VALID,19.7823,VALID,112,VALID,0,
2013-01-21, 02:45:05,VALID,918.378,VALID,0,VALID,95.1479,VALID,0,VALID,19.7823,VALID,112,VALID,0,
2013-01-21, 02:46:05,VALID,918.39,VALID,0,VALID,95.1479,VALID,0,VALID,19.7628,VALID,112,VALID,0,
2013-01-21, 02:47:05,VALID,918.385,VALID,0,VALID,95.247,VALID,0,VALID,19.8018,VALID,112,VALID,0,
2013-01-21, 02:48:05,VALID,918.337,VALID,0,VALID,95.2622,VALID,0,VALID,19.8408,VALID,112,VALID,0,
2013-01-21, 02:49:05,VALID,918.351,VALID,0,VALID,95.2241,VALID,0,VALID,19.8603,VALID,112,VALID,0,
2013-01-21, 02:50:05,VALID,918.308,VALID,0,VALID,95.1479,VALID,0,VALID,19.9008,VALID,112,VALID,0,
2013-01-21, 02:51:05,VALID,918.305,VALID,0,VALID,95.064,VALID,0,VALID,19.8993,VALID,112,VALID,0,
2013-01-21, 02:52:05,VALID,918.305,VALID,0,VALID,95.0488,VALID,0,VALID,19.8783,VALID,120,VALID,0,
2013-01-21, 02:53:05,VALID,918.305,VALID,0,VALID,95.0259,VALID,0,VALID,19.9188,VALID,124,VALID,0,
2013-01-21, 02:54:05,VALID,918.289,VALID,0,VALID,95.003,VALID,0,VALID,19.9188,VALID,124,VALID,0,
2013-01-21, 02:55:05,VALID,918.301,VALID,0,VALID,94.9801,VALID,0,VALID,19.8993,VALID,124,VALID,0,
2013-01-21, 02:56:05,VALID,918.269,VALID,0,VALID,94.942,VALID,0,VALID,19.8783,VALID,124,VALID,0,
2013-01-21, 02:57:05,VALID,918.252,VALID,0,VALID,95.003,VALID,0,VALID,19.8993,VALID,124,VALID,0,
2013-01-21, 02:58:05,VALID,918.243,VALID,0,VALID,95.0106,VALID,0,VALID,19.8993,VALID,124,VALID,0,
2013-01-21, 02:59:05,VALID,918.215,VALID,0,VALID,95.0183,VALID,0,VALID,19.9188,VALID,124,VALID,0,
2013-01-21, 03:00:05,VALID,918.228,VALID,0,VALID,94.9954,VALID,0,VALID,19.8783,VALID,124,VALID,0,
2013-01-21, 03:01:05,VALID,918.182,VALID,0,VALID,95.0259,VALID,0,VALID,19.8798,VALID,124,VALID,0,
2013-01-21, 03:02:05,VALID,918.175,VALID,0,VALID,95.0564,VALID,0,VALID,19.8603,VALID,124,VALID,0,
2013-01-21, 03:03:05,VALID,918.136,VALID,0,VALID,95.1021,VALID,0,VALID,19.8408,VALID,124,VALID,0,
2013-01-21, 03:04:05,VALID,918.12,VALID,0,VALID,95.1326,VALID,0,VALID,19.8213,VALID,124,VALID,0,
2013-01-21, 03:05:05,VALID,918.129,VALID,0,VALID,95.1479,VALID,0,VALID,19.8213,VALID,124,VALID,0,
2013-01-21, 03:06:05,VALID,918.079,VALID,0,VALID,95.2165,VALID,0,VALID,19.8198,VALID,124,VALID,0,
2013-01-21, 03:07:05,VALID,918.084,VALID,0,VALID,95.2012,VALID,0.107441,VALID,19.8408,VALID,124,VALID,0,
2013-01-21, 03:08:05,VALID,918.118,VALID,0,VALID,95.2241,VALID,0,VALID,19.8603,VALID,124,VALID,0,
2013-01-21, 03:09:05,VALID,918.082,VALID,0,VALID,95.1783,VALID,0,VALID,19.8408,VALID,124,VALID,0,
2013-01-21, 03:10:05,VALID,918.072,VALID,0,VALID,95.1402,VALID,0,VALID,19.8603,VALID,129,VALID,0,
2013-01-21, 03:11:05,VALID,918.089,VALID,0,VALID,95.1631,VALID,0.107441,VALID,19.8393,VALID,135,VALID,0,
2013-01-21, 03:12:05,VALID,918.072,VALID,0,VALID,95.1402,VALID,0.107441,VALID,19.8393,VALID,134,VALID,0,
2013-01-21, 03:13:05,VALID,918.083,VALID,0,VALID,95.1555,VALID,0.107441,VALID,19.8393,VALID,135,VALID,0,
2013-01-21, 03:14:05,VALID,918.038,VALID,0,VALID,95.1555,VALID,0,VALID,19.8198,VALID,134,VALID,0,
2013-01-21, 03:15:05,VALID,918.055,VALID,0,VALID,95.186,VALID,0,VALID,19.8003,VALID,140,VALID,0,
2013-01-21, 03:16:05,VALID,918.079,VALID,0,VALID,95.2241,VALID,0.107441,VALID,19.8003,VALID,136,VALID,0,
2013-01-21, 03:17:05,VALID,918.065,VALID,0,VALID,95.2622,VALID,0,VALID,19.7808,VALID,125,VALID,0,
2013-01-21, 03:18:05,VALID,918.054,VALID,0,VALID,95.3003,VALID,0,VALID,19.7808,VALID,131,VALID,0,
2013-01-21, 03:19:05,VALID,918.067,VALID,0,VALID,95.3613,VALID,0,VALID,19.7613,VALID,129,VALID,0,
2013-01-21, 03:20:05,VALID,918.058,VALID,0,VALID,95.3918,VALID,0.107441,VALID,19.7418,VALID,129,VALID,0,
2013-01-21, 03:21:05,VALID,918.043,VALID,0,VALID,95.4223,VALID,0,VALID,19.7613,VALID,128,VALID,0,
2013-01-21, 03:22:05,VALID,918.081,VALID,0,VALID,95.4299,VALID,0,VALID,19.7433,VALID,128,VALID,0,
2013-01-21, 03:23:05,VALID,918.062,VALID,0,VALID,95.5138,VALID,0,VALID,19.7238,VALID,101,VALID,0,
2013-01-21, 03:24:05,VALID,918.075,VALID,0,VALID,95.5214,VALID,0.107441,VALID,19.7043,VALID,105,VALID,0,
2013-01-21, 03:25:05,VALID,918.081,VALID,0,VALID,95.6357,VALID,0,VALID,19.7043,VALID,123,VALID,0,
2013-01-21, 03:26:05,VALID,918.072,VALID,0,VALID,95.651,VALID,0,VALID,19.6848,VALID,123,VALID,0,
2013-01-21, 03:27:05,VALID,918.052,VALID,0,VALID,95.7196,VALID,0,VALID,19.6848,VALID,140,VALID,0,
2013-01-21, 03:28:05,VALID,918.052,VALID,0,VALID,95.7501,VALID,0,VALID,19.6848,VALID,140,VALID,0,
2013-01-21, 03:29:05,VALID,918.061,VALID,0,VALID,95.7425,VALID,0,VALID,19.6848,VALID,140,VALID,0,
2013-01-21, 03:30:05,VALID,918.056,VALID,0,VALID,95.7425,VALID,0.107441,VALID,19.6848,VALID,140,VALID,0,
2013-01-21, 03:31:05,VALID,918.078,VALID,0,VALID,95.773,VALID,0,VALID,19.6848,VALID,140,VALID,0,
2013-01-21, 03:32:05,VALID,918.086,VALID,0,VALID,95.7806,VALID,0,VALID,19.6848,VALID,139,VALID,0,
2013-01-21, 03:33:05,VALID,918.096,VALID,0,VALID,95.773,VALID,0,VALID,19.6638,VALID,123,VALID,0,
2013-01-21, 03:34:05,VALID,918.105,VALID,0,VALID,95.7958,VALID,0.107441,VALID,19.6833,VALID,136,VALID,0,
2013-01-21, 03:35:05,VALID,918.101,VALID,0,VALID,95.8187,VALID,0,VALID,19.6848,VALID,145,VALID,0,
2013-01-21, 03:36:05,VALID,918.103,VALID,0,VALID,95.7958,VALID,0,VALID,19.6638,VALID,142,VALID,0,
2013-01-21, 03:37:05,VALID,918.108,VALID,0,VALID,95.7882,VALID,0,VALID,19.6653,VALID,142,VALID,0,
2013-01-21, 03:38:05,VALID,918.131,VALID,0,VALID,95.773,VALID,0.107441,VALID,19.6443,VALID,133,VALID,0,
2013-01-21, 03:39:05,VALID,918.111,VALID,0,VALID,95.773,VALID,0,VALID,19.6458,VALID,133,VALID,0,
2013-01-21, 03:40:05,VALID,918.115,VALID,0,VALID,95.7654,VALID,0.107441,VALID,19.6248,VALID,132,VALID,0,
2013-01-21, 03:41:05,VALID,918.097,VALID,0,VALID,95.7882,VALID,0,VALID,19.6053,VALID,135,VALID,0,
2013-01-21, 03:42:05,VALID,918.1,VALID,0,VALID,95.8035,VALID,0,VALID,19.6053,VALID,136,VALID,0,
2013-01-21, 03:43:05,VALID,918.088,VALID,0,VALID,95.8187,VALID,0,VALID,19.6248,VALID,140,VALID,0,
2013-01-21, 03:44:05,VALID,918.091,VALID,0,VALID,95.834,VALID,0.107441,VALID,19.6248,VALID,140,VALID,0,
2013-01-21, 03:45:05,VALID,918.083,VALID,0,VALID,95.7958,VALID,0,VALID,19.6248,VALID,140,VALID,0,
2013-01-21, 03:46:05,VALID,918.071,VALID,0,VALID,95.7577,VALID,0,VALID,19.6248,VALID,123,VALID,0,
2013-01-21, 03:47:05,VALID,918.043,VALID,0,VALID,95.6967,VALID,0.107441,VALID,19.6248,VALID,134,VALID,0,
2013-01-21, 03:48:05,VALID,918.061,VALID,0,VALID,95.6739,VALID,0,VALID,19.6053,VALID,139,VALID,0,
2013-01-21, 03:49:05,VALID,918.043,VALID,0,VALID,95.712,VALID,0,VALID,19.6263,VALID,155,VALID,0,
2013-01-21, 03:50:05,VALID,918.075,VALID,0,VALID,95.7044,VALID,0,VALID,19.6248,VALID,159,VALID,0,
2013-01-21, 03:51:05,VALID,918.044,VALID,0,VALID,95.6967,VALID,0,VALID,19.6458,VALID,155,VALID,0,
2013-01-21, 03:52:05,VALID,918.036,VALID,0,VALID,95.712,VALID,0.107441,VALID,19.6638,VALID,156,VALID,0,
2013-01-21, 03:53:05,VALID,918.013,VALID,0,VALID,95.7044,VALID,0,VALID,19.6848,VALID,156,VALID,0,
2013-01-21, 03:54:05,VALID,918.025,VALID,0,VALID,95.651,VALID,0,VALID,19.6833,VALID,147,VALID,0,
2013-01-21, 03:55:05,VALID,917.997,VALID,0,VALID,95.6662,VALID,0,VALID,19.6848,VALID,146,VALID,0,
2013-01-21, 03:56:05,VALID,917.978,VALID,0,VALID,95.6205,VALID,0,VALID,19.6848,VALID,145,VALID,0,
2013-01-21, 03:57:05,VALID,918.004,VALID,0,VALID,95.5976,VALID,0,VALID,19.7043,VALID,160,VALID,0,
2013-01-21, 03:58:05,VALID,918.02,VALID,0,VALID,95.5595,VALID,0,VALID,19.7043,VALID,139,VALID,0,
2013-01-21, 03:59:05,VALID,918.03,VALID,0,VALID,95.5443,VALID,0,VALID,19.6848,VALID,146,VALID,0,